Regional Weather Roundup
Issued by NWS

Home | Current Version | Previous Version | Text Only | Print | Product List | Glossary On
Versions: 1 2 3 4 5 6 7 8 9 10 11 12 13 14 15 16 17 18 19 20 21 22 23 24 25 26 27 28 29 30 31 32 33 34 35 36 37 38 39 40 41 42 43 44 45 46 47 48 49 50
000
ASUS45 KPSR 070510
RWRAZ

ARIZONA REGIONAL HOURLY WEATHER ROUNDUP
NATIONAL WEATHER SERVICE PHOENIX AZ
1000 PM MST FRI MAR 06 2015

NOTE: FAIR INDICATES FEW OR NO CLOUDS BELOW 12,000 FEET WITH NO
SIGNIFICANT WEATHER AND/OR OBSTRUCTIONS TO VISIBILITY.

AZZ001>003-036-070600-
NORTHWEST ARIZONA

CITY           SKY/WX    TMP DP  RH WIND       PRES   REMARKS
BULLHEAD CITY  CLEAR     68  19  15 N21       30.08R
KINGMAN        CLEAR     49  27  42 E10       30.19R
$$

AZZ004>008-015-016-018-070600-
NORTH CENTRAL ARIZONA

CITY           SKY/WX    TMP DP  RH WIND       PRES   REMARKS
GRAND CANYON   CLEAR     40   9  28 NE16      30.30F WCI  31
PRESCOTT       CLEAR     40  19  43 SW3       30.21S
FLAGSTAFF      CLEAR     39  15  37 E9        30.29R WCI  33
PAYSON         PTCLDY    50  18  27 NE12      30.22F
PAGE           CLEAR     44  22  41 CALM      30.30S
$$

AZZ009>014-017-070600-
NORTHEAST ARIZONA

CITY           SKY/WX    TMP DP  RH WIND       PRES   REMARKS
WINSLOW        CLEAR     40  23  50 CALM      30.28R
SAINT JOHNS    CLEAR     38  14  37 VRB3      30.23R
WINDOW ROCK    CLEAR     30  19  63 SW5       30.32S WCI  25
SHOW LOW       CLEAR     36  16  44 SW3       30.29S
$$

AZZ023-070600-
GREATER PHOENIX AREA

CITY           SKY/WX    TMP DP  RH WIND       PRES   REMARKS
PHOENIX        CLEAR     69  18  14 E10       30.00R
BUCKEYE        CLEAR     59  28  31 N10       30.01R
DEER VALLEY    CLEAR     65  23  20 NE9       30.03R
SCOTTSDALE     CLEAR     68  19  15 NE7       30.04S
MESA-GATEWAY   CLEAR     66  18  15 E7        30.03S
$$

AZZ027-028-070600-
SOUTHWEST MARICOPA COUNTY AND PINAL COUNTY

CITY           SKY/WX    TMP DP  RH WIND       PRES   REMARKS
CASA GRANDE    CLEAR     70  21  16 NE17      30.01S
$$

AZZ503-504-507>509-070600-
SOUTHEAST ARIZONA

CITY           SKY/WX    TMP DP  RH WIND       PRES   REMARKS
TUCSON         CLEAR     65  28  24 E12       30.08R
NOGALES        CLEAR     62  27  26 E17       30.09R
DOUGLAS        PTCLDY    55  28  35 E12       30.16R
SAFFORD        CLEAR     54  11  18 E9        30.16S
$$

AZZ020-021-025-026-031-070600-
SOUTHWEST ARIZONA

CITY           SKY/WX    TMP DP  RH WIND       PRES   REMARKS
YUMA           CLEAR     69  22  16 N7        29.98S
$$

CAZ031-033-041-043-047-048-061-070600-
SOUTHERN CALIFORNIA

CITY           SKY/WX    TMP DP  RH WIND       PRES   REMARKS
DOWNTOWN L.A.  CLEAR     70  33  25 E5        30.01R
L.A. AIRPORT   CLEAR     65  48  54 E3        30.01R
SAN DIEGO      CLEAR     69  30  23 N3        30.03R
BURBANK        CLEAR     76   8   7 SE3       30.03R
ONTARIO        CLEAR     71  14  11 NE10      30.04R
RIVERSIDE      CLEAR     67  16  14 NE3       30.06R
PALM SPRINGS   CLEAR     70  18  13 W6        30.07R
EL CENTRO NAS  CLEAR     63  31  30 SW10      29.99R
IMPERIAL       CLEAR     58  35  42 W6        29.99R
BLYTHE         CLEAR     66  28  24 N7        30.01R
NEEDLES        CLEAR     69  19  15 N14       30.07R
$$

NVZ020-UTZ003-070600-
SOUTHERN NEVADA-UTAH

CITY           SKY/WX    TMP DP  RH WIND       PRES   REMARKS
LAS VEGAS      CLEAR     61  22  22 SW3       30.15R
SALT LAKE CITY CLEAR     41  28  60 SW3       30.38S
$$

NMZ009-TXZ055-070600-
NEW MEXICO-WEST TEXAS

CITY           SKY/WX    TMP DP  RH WIND       PRES   REMARKS
ALBUQUERQUE    CLEAR     43  14  31 CALM      30.30R
EL PASO        PTCLDY    50  20  30 NE7       30.25R
$$


........................KEY........................
SKY/WX - SKY CONDITION/WEATHER
TMP    - TEMPERATURE IN FAHRENHEIT
DP     - DEW POINT IN FAHRENHEIT
RH     - RELATIVE HUMIDITY IN PERCENT
WIND   - DIRECTION AND SPEED IN MILES PER HOUR (MPH)
VRB    - VARIABLE WIND DIRECTION
PRES   - MEAN SEA LEVEL PRESSURE IN INCHES OF MERCURY
         F - FALLING PRESSURE   R - RISING PRESSURE
         S - STEADY PRESSURE
VSB    - VISIBILITY IN MILES
HX     - HEAT INDEX IN FAHRENHEIT
WCI    - WIND CHILL INDEX IN FAHRENHEIT
TC     - TEMPERATURE IN CELSIUS WHICH IS ALSO KNOWN AS
         TEMPERATURE IN CENTIGRADE
AFB    - AIR FORCE BASE
         LUKE AFB IS LUKE AIR FORCE BASE
         DAVIS-MONTHAN IS DAVIS-MONTHAN AIR FORCE BASE
NAS    - NAVAL AIR STATION
         EL CENTRO NAS IS EL CENTRO NAVAL AIR STATION
N/A    - NOT AVAILABLE



USA.gov is the U.S. government's official web portal to all federal, state and local government web resources and services.